Location: Arrington
(35.8681°N, 86.7092°W)
Time: 03:31:46
(UTC+00:00)

Timation 2 Rocket - Pass Details

Date: 23 November 2019
Orbit: 907 x 1074 km, 70.0° (Epoch: 08 December)

Event Time Altitude Azimuth Distance (km) Brightness Sun altitude
Rises 11:33:45 0° 220° (SW) 3,579 6.7 -11.6°
Reaches altitude 10° 11:36:25 10° 227° (SW) 2,620 6.0 -11.1°
Maximum altitude 11:42:07 43° 298° (WNW) 1,257 4.2 -10.0°
Drops below altitude 10° 11:47:47 10° 9° (N) 2,595 6.1 -8.9°
Sets 11:50:26 0° 17° (NNE) 3,542 6.9 -8.4°
